Gunnison, CO

3:45 PM MDT on September 19, 2019 (GMT -0600)
Gunnison County

Weather History for KGUC - July, 2019

Change the Weather History Date:

Saturday, July 20, 2019

  Actual Average Record
Temperature  
Mean Temperature 63 °F -  
Max Temperature 81 °F 77 °F 89 °F (2005)
Min Temperature 45 °F 45 °F 41 °F (2000)
Degree Days  
Heating Degree Days 2    
Growing Degree Days 13 (Base 50)    
Moisture  
Dew Point 44 °F    
Average Humidity 55    
Maximum Humidity 80    
Minimum Humidity 26    
Precipitation  
Precipitation 0.18 in - - ()
Sea Level Pressure  
Sea Level Pressure 30.05 in    
Wind  
Wind Speed 5 mph (North)    
Max Wind Speed 22 mph    
Max Gust Speed 30 mph    
Visibility 10 miles    
Events Rain , Thunderstorm    
Averages and records for this station are not official NWS values.
T = Trace of Precipitation, MM = Missing Value Source: NWS Daily Summary

Daily Weather History Graph

Daily Weather History Graph

Search for Another Location

Airport or City:

Astronomy

Jul. 20, 2019 Rise Set
Actual Time 5:59 AM MDT 8:28 PM MDT
Civil Twilight 5:28 AM MDT 8:58 PM MDT
Nautical Twilight 4:51 AM MDT 9:36 PM MDT
Astronomical Twilight 4:08 AM MDT 10:18 PM MDT
Moon 10:59 PM MDT (7/20) 9:24 AM MDT (7/20)
Length of Visible Light 15h 29m
Length of Day
14h 28m
Waning Gibbous, 87% of the Moon is Illuminated
Jul 20
Waning Gibbous
Jul 24
Last Quarter
Jul 31
New
Aug 7
First Quarter
Aug 15
Full

Hourly Weather History & Observations

Time (MDT) Temp. Dew Point Humidity Pressure Visibility Wind Dir Wind Speed Gust Speed Precip Events Conditions
12:56 AM 57.0 °F 39.0 °F 51% 29.94 in 10.0 mi NNE 5.8 mph - N/A   Clear
1:56 AM 52.0 °F 42.1 °F 69% 29.96 in 10.0 mi Calm Calm - N/A   Clear
2:56 AM 51.1 °F 41.0 °F 68% 29.96 in 10.0 mi Calm Calm - N/A   Clear
3:56 AM 48.9 °F 39.0 °F 69% 29.99 in 10.0 mi North 3.5 mph - N/A   Clear
4:56 AM 46.9 °F 39.0 °F 74% 30.01 in 10.0 mi North - - N/A   Clear
5:56 AM 46.0 °F 37.9 °F 73% 30.03 in 10.0 mi Calm Calm - N/A   Clear
6:56 AM 45.0 °F 39.0 °F 80% 30.06 in 10.0 mi Calm Calm - N/A   Clear
7:56 AM 53.1 °F 39.0 °F 59% 30.06 in 10.0 mi Calm Calm - N/A   Clear
8:56 AM 59.0 °F 39.0 °F 48% 30.06 in 10.0 mi Calm Calm - N/A   Clear
9:56 AM 68.0 °F 39.0 °F 35% 30.04 in 10.0 mi Calm Calm - N/A   Clear
10:56 AM 73.0 °F 41.0 °F 31% 30.01 in 10.0 mi Calm Calm - N/A   Clear
11:56 AM 78.1 °F 42.1 °F 28% 29.98 in 10.0 mi NNW 4.6 mph - N/A   Clear
12:56 PM 81.0 °F 43.0 °F 26% 29.95 in 10.0 mi South 4.6 mph - N/A   Clear
1:56 PM 71.1 °F 46.0 °F 41% 30.03 in 9.0 mi WSW 10.4 mph 27.6 mph 0.05 in Rain , Thunderstorm Light Thunderstorms and Rain
2:56 PM 69.1 °F 46.0 °F 44% 30.09 in 10.0 mi South 20.7 mph 27.6 mph 0.08 in Thunderstorm Mostly Cloudy
3:17 PM 69.8 °F 44.6 °F 40% 30.32 in 10.0 mi SSW 21.9 mph 29.9 mph 0.02 in   Mostly Cloudy
3:56 PM 66.0 °F 48.0 °F 52% 30.17 in 10.0 mi SW 3.5 mph 16.1 mph 0.04 in Rain Light Rain
4:56 PM 66.9 °F 48.9 °F 52% 30.15 in 10.0 mi NE 12.7 mph - 0.01 in   Partly Cloudy
5:56 PM 68.0 °F 51.1 °F 55% 30.12 in 10.0 mi North 8.1 mph - N/A   Clear
6:56 PM 69.1 °F 48.0 °F 47% 30.09 in 10.0 mi NNE 10.4 mph - N/A   Clear
7:56 PM 68.0 °F 48.9 °F 50% 30.04 in 10.0 mi NNE 8.1 mph - N/A   Clear
8:56 PM 63.0 °F 48.9 °F 60% 30.08 in 10.0 mi North 5.8 mph - N/A   Clear
9:56 PM 61.0 °F 48.9 °F 64% 30.06 in 10.0 mi North 9.2 mph - N/A   Clear
10:56 PM 55.9 °F 48.9 °F 77% 30.06 in 10.0 mi North 5.8 mph - N/A   Clear
11:56 PM 55.0 °F 48.0 °F 77% 30.03 in 10.0 mi Variable 3.5 mph - N/A   Clear